User: anonymous   Login
Location: Lecco
(45.8566°N, 9.3977°E)
Time: 04:43:55
(UTC+02:00)
Language:

A-11 Canister half - Orbit

View from above orbital plane
View from above orbital plane
View from above satellite
View from above satellite

Ground track
Ground track

The orbit data is extracted from the following two-line orbital elements,

1    53U 60009E   21127.87223492 -.00000036  00000-0  48116-3 0  9996
2    53  47.2782 338.5288 0098178 320.6509  38.7177 12.17254628708089
Epoch (UTC): 07 May 2021 20:56:01
Eccentricity: 0.0098178
inclination: 47.2782°
perigee height: 1526 km
apogee height: 1683 km
right ascension of ascending node: 338.5288°
argument of perigee: 320.6509°
revolutions per day: 12.17254628
mean anomaly at epoch: 38.7177°
orbit number at epoch: 70808

The dashed part of the orbit path shows where the satellite is in the earth's shadow,  

DLR